MAS2747 WBGB-WMKK

Flight info

Callsign MAS2747
Flight time 1h 44m
Altitude 36000
Route ADGAB W447 KAMIN G334 SAROX
Aircraft B738/M-SDE2E3FGHIRWXY/LB1

Departure

Time 2026-05-04 06:07
Airport Bintulu Airport (WBGB)

Arrival

Time 2026-05-04 07:51
Airport Kuala Lumpur International Airport (WMKK)
Time Latitude Longitude Altitude Speed Heading
2026-05-04 05:47 3.12380 113.02306 122 ft 0 kts 79°
2026-05-04 05:58 3.12378 113.02293 123 ft 2 kts 79°
2026-05-04 05:58 3.12375 113.02278 123 ft 2 kts 79°
2026-05-04 05:58 3.12372 113.02264 124 ft 2 kts 79°
2026-05-04 05:59 3.12374 113.02249 124 ft 2 kts 115°
2026-05-04 05:59 3.12383 113.02237 125 ft 2 kts 143°
2026-05-04 05:59 3.12392 113.02232 125 ft 0 kts 164°
2026-05-04 05:59 3.12399 113.02230 125 ft 0 kts 168°
2026-05-04 06:00 3.12400 113.02230 125 ft 0 kts 167°
2026-05-04 06:03 3.12055 113.02222 122 ft 11 kts 188°
2026-05-04 06:03 3.12009 113.02163 121 ft 11 kts 251°
2026-05-04 06:05 3.11269 113.02249 136 ft 9 kts 122°
2026-05-04 06:05 3.11230 113.02236 135 ft 5 kts 336°
2026-05-04 06:05 3.11244 113.02232 135 ft 0 kts 345°
2026-05-04 06:06 3.11255 113.02228 135 ft 6 kts 345°
2026-05-04 06:06 3.11539 113.02166 131 ft 80 kts 348°
2026-05-04 06:06 3.12326 113.01993 121 ft 147 kts 348°
2026-05-04 06:06 3.13444 113.01730 435 ft 172 kts 347°
2026-05-04 06:07 3.14655 113.01479 1055 ft 181 kts 349°
2026-05-04 06:07 3.15800 113.01118 1856 ft 178 kts 328°
2026-05-04 06:07 3.16567 113.00106 2262 ft 193 kts 289°
2026-05-04 06:07 3.16614 112.98717 2597 ft 216 kts 263°
2026-05-04 06:08 3.16304 112.97147 2841 ft 243 kts 261°
2026-05-04 06:08 3.15904 112.95416 3269 ft 264 kts 259°
2026-05-04 06:08 3.15476 112.93600 3912 ft 275 kts 260°
2026-05-04 06:08 3.15046 112.91706 4388 ft 292 kts 258°
2026-05-04 06:09 3.14516 112.89788 5435 ft 287 kts 257°
2026-05-04 06:09 3.13978 112.87882 6340 ft 288 kts 258°
2026-05-04 06:11 3.11850 112.73764 12118 ft 313 kts 261°
2026-05-04 06:11 3.11554 112.71601 12890 ft 318 kts 261°
2026-05-04 06:13 3.09294 112.55418 17993 ft 355 kts 258°
2026-05-04 06:14 3.07149 112.40131 21643 ft 387 kts 258°
2026-05-04 06:14 3.06778 112.37486 22187 ft 392 kts 258°
2026-05-04 06:15 3.06398 112.34781 22724 ft 396 kts 258°
2026-05-04 06:15 3.06013 112.32034 23246 ft 401 kts 258°
2026-05-04 06:15 3.05620 112.29241 23759 ft 406 kts 258°
2026-05-04 06:15 3.05226 112.26440 24258 ft 411 kts 258°
2026-05-04 06:16 3.04826 112.23592 24748 ft 415 kts 258°
2026-05-04 06:16 3.04424 112.20727 25223 ft 419 kts 259°
2026-05-04 06:16 3.04018 112.17839 25689 ft 424 kts 259°
2026-05-04 06:16 3.03609 112.14929 26141 ft 428 kts 259°
2026-05-04 06:17 3.03190 112.11948 26590 ft 432 kts 259°
2026-05-04 06:17 3.02772 112.08978 27024 ft 436 kts 259°
2026-05-04 06:17 3.02350 112.05976 27451 ft 439 kts 259°
2026-05-04 06:17 3.01924 112.02947 27871 ft 443 kts 259°
2026-05-04 06:18 3.01492 111.99878 28279 ft 446 kts 259°
2026-05-04 06:18 3.01064 111.96831 28678 ft 450 kts 260°
2026-05-04 06:18 3.00624 111.93704 29078 ft 453 kts 260°
2026-05-04 06:20 2.97490 111.71452 31640 ft 473 kts 261°
2026-05-04 06:20 2.97029 111.68182 31977 ft 475 kts 261°
2026-05-04 06:21 2.95170 111.55004 33285 ft 483 kts 262°
2026-05-04 06:21 2.94700 111.51675 33590 ft 485 kts 262°
2026-05-04 06:22 2.94235 111.48374 34119 ft 480 kts 262°
2026-05-04 06:22 2.93765 111.45046 34560 ft 479 kts 262°
2026-05-04 06:25 2.87769 111.02661 35885 ft 474 kts 262°
2026-05-04 06:26 2.86844 110.96130 35885 ft 474 kts 262°
2026-05-04 06:26 2.85922 110.89631 35885 ft 474 kts 262°
2026-05-04 06:27 2.83608 110.73313 35885 ft 474 kts 262°
2026-05-04 06:28 2.82687 110.66824 35885 ft 474 kts 262°
2026-05-04 06:28 2.81759 110.60293 35885 ft 474 kts 262°
2026-05-04 06:29 2.80834 110.53779 35885 ft 474 kts 262°
2026-05-04 06:29 2.79908 110.47267 35885 ft 474 kts 262°
2026-05-04 06:30 2.78983 110.40761 35885 ft 474 kts 262°
2026-05-04 06:30 2.78057 110.34244 35885 ft 474 kts 262°
2026-05-04 06:31 2.77133 110.27750 35885 ft 474 kts 262°
2026-05-04 06:31 2.76205 110.21231 35885 ft 474 kts 262°
2026-05-04 06:33 2.72488 109.95144 35885 ft 474 kts 262°
2026-05-04 06:34 2.71563 109.88660 35885 ft 474 kts 262°
2026-05-04 06:34 2.70633 109.82140 35885 ft 474 kts 262°
2026-05-04 06:36 2.66909 109.56066 35885 ft 474 kts 262°
2026-05-04 06:37 2.65973 109.49524 35869 ft 475 kts 262°
2026-05-04 06:37 2.65041 109.43008 35858 ft 474 kts 262°
2026-05-04 06:38 2.64113 109.36520 35858 ft 474 kts 262°
2026-05-04 06:40 2.60382 109.10468 35858 ft 474 kts 262°
2026-05-04 06:40 2.59450 109.03966 35858 ft 473 kts 262°
2026-05-04 06:41 2.58517 108.97456 35858 ft 472 kts 262°
2026-05-04 06:41 2.58040 108.90942 35858 ft 471 kts 272°
2026-05-04 06:42 2.58299 108.84422 35858 ft 471 kts 272°
2026-05-04 06:44 2.59306 108.58250 35858 ft 471 kts 273°
2026-05-04 06:44 2.59578 108.51746 35858 ft 471 kts 273°
2026-05-04 06:45 2.59854 108.45184 35858 ft 471 kts 273°
2026-05-04 06:45 2.60128 108.38673 35858 ft 471 kts 273°
2026-05-04 06:46 2.60404 108.32137 35858 ft 471 kts 273°
2026-05-04 06:46 2.60680 108.25597 35858 ft 471 kts 273°
2026-05-04 06:48 2.61781 107.99461 35858 ft 471 kts 273°
2026-05-04 06:50 2.62876 107.73324 35858 ft 471 kts 273°
2026-05-04 06:51 2.63148 107.66805 35858 ft 471 kts 273°
2026-05-04 06:51 2.63422 107.60250 35858 ft 471 kts 273°
2026-05-04 06:52 2.63693 107.53738 35858 ft 471 kts 273°
2026-05-04 06:52 2.63966 107.47175 35866 ft 471 kts 273°
2026-05-04 06:53 2.64236 107.40676 35881 ft 471 kts 273°
2026-05-04 06:53 2.64507 107.34145 35896 ft 471 kts 273°
2026-05-04 06:54 2.64779 107.27594 35910 ft 471 kts 273°
2026-05-04 06:54 2.65049 107.21070 35912 ft 471 kts 273°
2026-05-04 06:55 2.65319 107.14554 35912 ft 471 kts 273°
2026-05-04 06:55 2.65589 107.08010 35912 ft 471 kts 273°
2026-05-04 06:57 2.66664 106.81901 35912 ft 470 kts 272°
2026-05-04 06:58 2.66932 106.75381 35912 ft 469 kts 272°
2026-05-04 06:58 2.67198 106.68881 35912 ft 469 kts 272°
2026-05-04 06:59 2.67462 106.62419 35912 ft 469 kts 272°
2026-05-04 06:59 2.67730 106.55878 35912 ft 469 kts 272°
2026-05-04 07:01 2.68789 106.29889 35912 ft 469 kts 272°
2026-05-04 07:02 2.69053 106.23382 35912 ft 469 kts 272°
2026-05-04 07:02 2.69316 106.16898 35912 ft 469 kts 272°
2026-05-04 07:03 2.69580 106.10387 35912 ft 469 kts 272°
2026-05-04 07:03 2.69844 106.03866 35912 ft 469 kts 272°
2026-05-04 07:04 2.70176 105.97367 35911 ft 469 kts 275°
2026-05-04 07:04 2.70959 105.90897 35912 ft 469 kts 277°
2026-05-04 07:05 2.71696 105.84451 35912 ft 469 kts 276°
2026-05-04 07:05 2.72424 105.77953 35912 ft 469 kts 276°
2026-05-04 07:06 2.73503 105.68269 35910 ft 469 kts 276°
2026-05-04 07:07 2.74221 105.61794 35909 ft 469 kts 276°
2026-05-04 07:09 2.77078 105.35909 35858 ft 470 kts 276°
2026-05-04 07:09 2.77794 105.29415 35858 ft 469 kts 276°
2026-05-04 07:10 2.78506 105.22944 35858 ft 469 kts 276°
2026-05-04 07:12 2.81361 104.96982 35858 ft 474 kts 276°
2026-05-04 07:12 2.82082 104.90413 35858 ft 475 kts 276°
2026-05-04 07:13 2.82800 104.83876 35858 ft 476 kts 276°
2026-05-04 07:13 2.83522 104.77290 35858 ft 476 kts 276°
2026-05-04 07:14 2.85321 104.60873 35858 ft 476 kts 276°
2026-05-04 07:15 2.86042 104.54290 35858 ft 476 kts 276°
2026-05-04 07:15 2.86757 104.47755 35858 ft 476 kts 276°
2026-05-04 07:16 2.87479 104.41152 35858 ft 476 kts 276°
2026-05-04 07:16 2.88194 104.34612 35857 ft 476 kts 276°
2026-05-04 07:17 2.88912 104.28045 35858 ft 476 kts 276°
2026-05-04 07:17 2.89628 104.21492 35858 ft 476 kts 276°
2026-05-04 07:18 2.90348 104.14894 35858 ft 476 kts 276°
2026-05-04 07:18 2.90605 104.08314 35858 ft 475 kts 266°
2026-05-04 07:19 2.90125 104.01756 35858 ft 476 kts 265°
2026-05-04 07:19 2.89689 103.95135 35858 ft 476 kts 265°
2026-05-04 07:20 2.89223 103.88576 35858 ft 476 kts 265°
2026-05-04 07:20 2.88743 103.82008 35858 ft 476 kts 265°
2026-05-04 07:22 2.86773 103.55657 35858 ft 476 kts 265°
2026-05-04 07:23 2.86274 103.49046 35858 ft 476 kts 265°
2026-05-04 07:23 2.85779 103.42499 35858 ft 476 kts 265°
2026-05-04 07:24 2.85281 103.35912 35858 ft 476 kts 265°
2026-05-04 07:24 2.84781 103.29300 35858 ft 476 kts 265°
2026-05-04 07:26 2.82793 103.03072 32516 ft 468 kts 264°
2026-05-04 07:27 2.82546 102.99824 31962 ft 463 kts 264°
2026-05-04 07:27 2.82305 102.96658 31457 ft 462 kts 264°
2026-05-04 07:27 2.82059 102.93423 30901 ft 464 kts 264°
2026-05-04 07:27 2.81813 102.90196 30349 ft 466 kts 264°
2026-05-04 07:28 2.81570 102.87009 29806 ft 468 kts 264°
2026-05-04 07:28 2.81322 102.83748 29251 ft 469 kts 264°
2026-05-04 07:28 2.81077 102.80531 28705 ft 469 kts 264°
2026-05-04 07:28 2.80828 102.77264 28150 ft 469 kts 264°
2026-05-04 07:29 2.80581 102.74020 27600 ft 469 kts 264°
2026-05-04 07:29 2.80330 102.70767 27048 ft 469 kts 264°
2026-05-04 07:29 2.79948 102.67553 26499 ft 469 kts 259°
2026-05-04 07:29 2.79275 102.64370 25949 ft 468 kts 255°
2026-05-04 07:30 2.78501 102.61219 25399 ft 468 kts 255°
2026-05-04 07:30 2.77744 102.58050 24846 ft 468 kts 255°
2026-05-04 07:30 2.77006 102.54905 24296 ft 466 kts 255°
2026-05-04 07:30 2.76265 102.51784 23746 ft 461 kts 255°
2026-05-04 07:31 2.75523 102.48695 23197 ft 456 kts 255°
2026-05-04 07:31 2.74784 102.45631 22645 ft 451 kts 255°
2026-05-04 07:33 2.73242 102.24855 18787 ft 429 kts 292°
2026-05-04 07:33 2.74618 102.22228 18238 ft 426 kts 300°
2026-05-04 07:33 2.76359 102.19888 17687 ft 424 kts 311°
2026-05-04 07:33 2.78511 102.17867 17130 ft 422 kts 322°
2026-05-04 07:34 2.81125 102.16559 16568 ft 421 kts 343°
2026-05-04 07:34 2.83984 102.16316 16092 ft 417 kts
2026-05-04 07:34 2.86843 102.16567 15620 ft 409 kts 360°
2026-05-04 07:34 2.89592 102.16209 15131 ft 399 kts 340°
2026-05-04 07:35 2.91961 102.14876 14653 ft 386 kts 316°
2026-05-04 07:35 2.93538 102.12779 14183 ft 376 kts 294°
2026-05-04 07:35 2.94272 102.10323 13710 ft 368 kts 276°
2026-05-04 07:35 2.94092 102.07816 13239 ft 363 kts 257°
2026-05-04 07:36 2.93328 102.05447 12869 ft 356 kts 250°
2026-05-04 07:36 2.92415 102.03213 12854 ft 338 kts 248°
2026-05-04 07:38 2.86959 101.89516 12858 ft 295 kts 249°
2026-05-04 07:38 2.86205 101.87633 12859 ft 295 kts 248°
2026-05-04 07:38 2.85230 101.85823 12853 ft 296 kts 237°
2026-05-04 07:38 2.84040 101.84126 12489 ft 296 kts 236°
2026-05-04 07:39 2.82891 101.82452 12180 ft 292 kts 235°
2026-05-04 07:39 2.81455 101.81028 11868 ft 291 kts 213°
2026-05-04 07:39 2.79553 101.80426 11570 ft 290 kts 184°
2026-05-04 07:39 2.77563 101.80673 11263 ft 290 kts 165°
2026-05-04 07:40 2.75787 101.81544 10962 ft 288 kts 147°
2026-05-04 07:40 2.74146 101.82702 10654 ft 285 kts 147°
2026-05-04 07:40 2.72527 101.83792 10356 ft 282 kts 147°
2026-05-04 07:40 2.70904 101.84875 10060 ft 279 kts 147°
2026-05-04 07:41 2.69297 101.85954 9766 ft 278 kts 147°
2026-05-04 07:41 2.67694 101.87029 9473 ft 277 kts 147°
2026-05-04 07:41 2.66105 101.88094 9182 ft 275 kts 147°
2026-05-04 07:41 2.64538 101.89145 8895 ft 273 kts 147°
2026-05-04 07:42 2.62966 101.90198 8604 ft 270 kts 147°
2026-05-04 07:42 2.61414 101.91238 8316 ft 267 kts 147°
2026-05-04 07:42 2.59881 101.92266 8036 ft 264 kts 147°
2026-05-04 07:42 2.58368 101.93281 7760 ft 261 kts 147°
2026-05-04 07:43 2.56871 101.94285 7487 ft 258 kts 146°
2026-05-04 07:43 2.55383 101.95255 7213 ft 255 kts 152°
2026-05-04 07:43 2.53736 101.95696 6946 ft 247 kts 185°
2026-05-04 07:43 2.52158 101.95190 6697 ft 238 kts 214°
2026-05-04 07:44 2.51078 101.93984 6268 ft 234 kts 250°
2026-05-04 07:44 2.50749 101.92420 5977 ft 227 kts 269°
2026-05-04 07:44 2.51032 101.90911 5713 ft 219 kts 295°
2026-05-04 07:44 2.51688 101.89569 5470 ft 214 kts 296°
2026-05-04 07:45 2.52330 101.88242 5236 ft 208 kts 298°
2026-05-04 07:45 2.53153 101.87105 5012 ft 201 kts 319°
2026-05-04 07:45 2.54227 101.86237 4797 ft 199 kts 323°
2026-05-04 07:45 2.55318 101.85375 4576 ft 198 kts 321°
2026-05-04 07:46 2.56403 101.84583 4468 ft 193 kts 326°
2026-05-04 07:46 2.57501 101.83831 4238 ft 188 kts 326°
2026-05-04 07:46 2.58554 101.83120 3979 ft 181 kts 327°
2026-05-04 07:46 2.59583 101.82430 3733 ft 175 kts 326°
2026-05-04 07:47 2.60586 101.81758 3497 ft 171 kts 326°
2026-05-04 07:47 2.61549 101.81110 3279 ft 165 kts 327°
2026-05-04 07:47 2.62496 101.80477 3036 ft 164 kts 327°
2026-05-04 07:49 2.69024 101.76101 1479 ft 158 kts 326°
2026-05-04 07:49 2.69927 101.75494 1271 ft 154 kts 327°
2026-05-04 07:49 2.70792 101.74915 1060 ft 151 kts 327°
2026-05-04 07:50 2.71666 101.74329 851 ft 151 kts 327°
2026-05-04 07:50 2.72533 101.73747 655 ft 150 kts 327°
2026-05-04 07:50 2.73389 101.73174 454 ft 149 kts 327°
2026-05-04 07:50 2.74250 101.72594 280 ft 149 kts 327°
2026-05-04 07:51 2.75126 101.72012 120 ft 149 kts 327°
2026-05-04 07:51 2.75959 101.71457 76 ft 128 kts 327°
2026-05-04 07:51 2.76482 101.71107 75 ft 50 kts 326°
2026-05-04 07:51 2.76709 101.70954 75 ft 29 kts 326°
2026-05-04 07:52 2.76839 101.70837 75 ft 21 kts 301°
2026-05-04 07:52 2.76903 101.70721 75 ft 16 kts 296°
2026-05-04 07:52 2.76910 101.70629 75 ft 13 kts 225°
2026-05-04 07:52 2.76836 101.70636 75 ft 11 kts 147°
2026-05-04 07:53 2.76751 101.70692 75 ft 15 kts 148°
2026-05-04 07:54 2.76079 101.71052 75 ft 14 kts 165°
2026-05-04 07:55 2.75992 101.71088 75 ft 13 kts 149°
2026-05-04 07:55 2.75928 101.71131 75 ft 10 kts 146°
2026-05-04 07:55 2.75863 101.71151 75 ft 10 kts 204°
2026-05-04 07:55 2.75816 101.71099 75 ft 10 kts 235°
2026-05-04 07:56 2.75775 101.71038 75 ft 10 kts 237°
2026-05-04 07:56 2.75736 101.70978 75 ft 10 kts 236°
2026-05-04 07:56 2.75697 101.70919 75 ft 9 kts 236°
2026-05-04 07:56 2.75656 101.70860 75 ft 9 kts 235°
2026-05-04 07:57 2.75624 101.70818 75 ft 6 kts 211°
2026-05-04 07:57 2.75584 101.70826 75 ft 6 kts 148°
2026-05-04 07:57 2.75562 101.70840 75 ft 1 kts 146°
2026-05-04 07:57 2.75554 101.70846 75 ft 0 kts 146°
2026-05-04 07:58 2.75553 101.70847 75 ft 0 kts 146°